Location: Boleita
(10.4833°N, 66.8167°W)
Time: 01:44:01
(UTC+00:00)

Meteor 1-24 Rocket - Pass Details

Date: 08 November 2025
Orbit: 788 x 926 km, 81.3° (Epoch: 09 December)

Event Time Altitude Azimuth Distance (km) Brightness Sun altitude
Rises 08:37:09 0° 179° (S) 3,555 7.1 -25.3°
Reaches altitude 10° 08:39:39 10° 177° (S) 2,604 6.4 -24.7°
Maximum altitude 08:45:34 68° 95° (E) 965 4.1 -23.3°
Drops below altitude 10° 08:51:19 10° 13° (NNE) 2,533 6.2 -21.9°
Sets 08:53:44 0° 10° (N) 3,451 6.8 -21.3°
